Frankfort, MI

9:22 AM EDT on September 20, 2017 (GMT -0400)
Frankfort

Weather History for KFKS - December, 2013

Change the Weather History Date:

Sunday, December 1, 2013

  Actual Average (KMBL) Record (KMBL)
Temperature  
Mean Temperature 34 °F -  
Max Temperature 37 °F 37 °F 62 °F (1970)
Min Temperature 31 °F 26 °F 6 °F (1966)
Degree Days  
Heating Degree Days 31    
Moisture  
Dew Point 31 °F    
Average Humidity 87    
Maximum Humidity 94    
Minimum Humidity 76    
Precipitation  
Precipitation 0.00 in - - ()
Sea Level Pressure  
Sea Level Pressure 30.05 in    
Wind  
Wind Speed 1 mph (NE)    
Max Wind Speed 6 mph    
Max Gust Speed -    
Visibility 8 miles    
Events      
Averages and records for this station are not official NWS values.
T = Trace of Precipitation, MM = Missing Value Source: NWS Daily Summary

Daily Weather History Graph

Daily Weather History Graph

Search for Another Location

Airport or City:

Trip Planner

Search our weather history database for the weather conditions in past years. The results will help you decide how hot, cold, wet, or windy it might be!

Date:

Astronomy

Dec. 01, 2013 Rise Set
Actual Time 8:01 AM EST 5:05 PM EST
Civil Twilight 7:28 AM EST 5:38 PM EST
Nautical Twilight 6:52 AM EST 6:15 PM EST
Astronomical Twilight 6:17 AM EST 6:50 PM EST
Moon 6:16 AM EST (12/1) 4:17 PM EST (12/1)
Length of Visible Light 10h 09m
Length of Day
9h 04m
Waning Crescent, 2% of the Moon is Illuminated
Dec 1
Waning Crescent
Dec 2
New
Dec 9
First Quarter
Dec 17
Full
Dec 25
Last Quarter

Hourly Weather History & Observations

Time (EST) Temp. Windchill Dew Point Humidity Pressure Visibility Wind Dir Wind Speed Gust Speed Precip Events Conditions
12:14 AM 34.9 °F - 31.5 °F 87% 30.03 in 7.0 mi Calm Calm - N/A   Overcast
12:34 AM 33.3 °F - 31.6 °F 94% 30.04 in 5.0 mi Calm Calm - N/A   Overcast
12:54 AM 33.4 °F - 32.0 °F 94% 30.04 in 5.0 mi Calm Calm - N/A   Overcast
1:15 AM 35.8 °F - 31.8 °F 86% 30.03 in 7.0 mi Calm Calm - N/A   Overcast
1:35 AM 36.3 °F - 32.0 °F 84% 30.04 in 10.0 mi Calm Calm - N/A   Overcast
1:55 AM 36.3 °F - 31.6 °F 83% 30.04 in 10.0 mi Calm Calm - N/A   Overcast
2:15 AM 36.7 °F 32.0 °F 31.1 °F 80% 30.03 in 10.0 mi North 5.8 mph - N/A   Overcast
2:35 AM 36.1 °F 33.5 °F 30.9 °F 81% 30.04 in 10.0 mi North 3.5 mph - N/A   Overcast
2:55 AM 36.1 °F - 30.7 °F 81% 30.03 in 10.0 mi Calm Calm - N/A   Overcast
3:15 AM 36.3 °F - 31.1 °F 81% 30.04 in 10.0 mi Calm Calm - N/A   Overcast
3:36 AM 36.5 °F 32.7 °F 31.1 °F 81% 30.04 in 10.0 mi NNE 4.6 mph - N/A   Overcast
3:56 AM 36.7 °F 32.9 °F 31.3 °F 81% 30.04 in 10.0 mi North 4.6 mph - N/A   Overcast
4:16 AM 36.9 °F 33.1 °F 31.5 °F 81% 30.04 in 7.0 mi NNE 4.6 mph - N/A   Overcast
4:36 AM 37.0 °F - 31.1 °F 79% 30.04 in 7.0 mi Calm Calm - N/A   Overcast
4:56 AM 36.7 °F 34.1 °F 31.6 °F 82% 30.05 in 7.0 mi NE 3.5 mph - N/A   Overcast
5:16 AM 36.5 °F - 32.0 °F 84% 30.05 in 7.0 mi Calm Calm - N/A   Overcast
5:31 AM 36.3 °F - 32.0 °F 84% 30.05 in 7.0 mi Calm Calm - N/A   Overcast
5:51 AM 35.8 °F - 31.8 °F 86% 30.06 in 7.0 mi Calm Calm - N/A   Overcast
6:11 AM 35.2 °F - 31.8 °F 87% 30.06 in 7.0 mi Calm Calm - N/A   Overcast
6:32 AM 35.6 °F - 31.8 °F 86% 30.07 in 7.0 mi Calm Calm - N/A   Overcast
6:52 AM 35.4 °F - 31.8 °F 87% 30.07 in 7.0 mi Calm Calm - N/A   Overcast
7:12 AM 35.6 °F - 31.8 °F 86% 30.07 in 7.0 mi Calm Calm - N/A   Overcast
7:32 AM 35.2 °F - 31.6 °F 87% 30.07 in 7.0 mi Calm Calm - N/A   Overcast
7:52 AM 34.7 °F - 31.6 °F 89% 30.07 in 7.0 mi Calm Calm - N/A   Overcast
8:12 AM 34.0 °F - 31.6 °F 91% 30.07 in 5.0 mi Calm Calm - N/A   Overcast
8:32 AM 34.3 °F - 31.6 °F 90% 30.08 in 5.0 mi Calm Calm - N/A   Overcast
8:52 AM 34.0 °F - 31.6 °F 91% 30.08 in 4.0 mi Calm Calm - N/A   Overcast
9:12 AM 33.6 °F - 31.6 °F 92% 30.08 in 4.0 mi Calm Calm - N/A   Overcast
9:33 AM 34.0 °F - 31.8 °F 92% 30.08 in 4.0 mi Calm Calm - N/A   Overcast
9:53 AM 33.8 °F - 32.0 °F 93% 30.09 in 4.0 mi Calm Calm - N/A   Overcast
10:13 AM 34.3 °F - 32.0 °F 91% 30.09 in 4.0 mi Calm Calm - N/A   Overcast
10:33 AM 34.0 °F - 32.0 °F 92% 30.09 in 4.0 mi Calm Calm - N/A   Overcast
10:53 AM 34.2 °F - 32.0 °F 92% 30.10 in 4.0 mi Calm Calm - N/A   Overcast
11:13 AM 36.7 °F 34.1 °F 31.1 °F 80% 30.09 in 10.0 mi East 3.5 mph - N/A   Overcast
11:33 AM 36.7 °F - 31.5 °F 81% 30.09 in 10.0 mi Calm Calm - N/A   Overcast
11:54 AM 36.9 °F - 31.6 °F 81% 30.08 in 10.0 mi Calm Calm - N/A   Overcast
12:14 PM 36.7 °F 34.1 °F 31.6 °F 82% 30.08 in 10.0 mi ENE 3.5 mph - N/A   Overcast
12:34 PM 36.9 °F 34.3 °F 31.6 °F 81% 30.08 in 10.0 mi East 3.5 mph - N/A   Overcast
12:54 PM 37.0 °F - 31.8 °F 81% 30.07 in 10.0 mi Calm Calm - N/A   Overcast
1:14 PM 37.4 °F 34.9 °F 31.5 °F 79% 30.06 in 10.0 mi East 3.5 mph - N/A   Overcast
1:34 PM 37.0 °F - 31.3 °F 80% 30.06 in 10.0 mi Calm Calm - N/A   Overcast
1:54 PM 37.0 °F - 31.1 °F 79% 30.05 in 10.0 mi Calm Calm - N/A   Overcast
2:14 PM 36.9 °F - 29.8 °F 76% 30.05 in 10.0 mi Calm Calm - N/A   Overcast
2:34 PM 36.7 °F - 29.8 °F 76% 30.05 in 7.0 mi Calm Calm - N/A   Overcast
2:54 PM 36.3 °F - 30.6 °F 80% 30.05 in 10.0 mi Calm Calm - N/A   Overcast
3:14 PM 35.2 °F - 30.9 °F 84% 30.05 in 10.0 mi Calm Calm - N/A   Overcast
3:35 PM 35.8 °F - 31.6 °F 85% 30.05 in 7.0 mi Calm Calm - N/A   Overcast
3:55 PM 34.3 °F - 30.9 °F 87% 30.05 in 7.0 mi Calm Calm - N/A   Overcast
4:15 PM 34.2 °F - 31.3 °F 89% 30.05 in 10.0 mi Calm Calm - N/A   Overcast
4:35 PM 34.0 °F - 31.1 °F 89% 30.05 in 7.0 mi Calm Calm - N/A   Overcast
4:55 PM 33.8 °F - 30.9 °F 89% 30.04 in 10.0 mi Calm Calm - N/A   Overcast
5:15 PM 33.8 °F - 31.3 °F 90% 30.04 in 10.0 mi Calm Calm - N/A   Overcast
5:35 PM 33.4 °F - 30.7 °F 90% 30.04 in 10.0 mi Calm Calm - N/A   Overcast
5:55 PM 33.8 °F - 30.0 °F 86% 30.04 in 10.0 mi Calm Calm - N/A   Overcast
6:16 PM 33.8 °F - 30.9 °F 89% 30.04 in 10.0 mi Calm Calm - N/A   Overcast
6:36 PM 33.4 °F - 30.0 °F 87% 30.03 in 10.0 mi Calm Calm - N/A   Overcast
6:56 PM 33.3 °F - 30.9 °F 91% 30.03 in 10.0 mi Calm Calm - N/A   Overcast
7:16 PM 32.2 °F - 30.6 °F 94% 30.03 in 10.0 mi Calm Calm - N/A   Overcast
7:36 PM 32.9 °F - 30.7 °F 92% 30.03 in 10.0 mi Calm Calm - N/A   Overcast
7:51 PM 32.4 °F - 30.2 °F 92% 30.03 in 10.0 mi Calm Calm - N/A   Overcast
8:11 PM 32.2 °F - 30.0 °F 92% 30.03 in 10.0 mi Calm Calm - N/A   Overcast
8:32 PM 32.0 °F - 29.8 °F 92% 30.03 in 7.0 mi Calm Calm - N/A   Overcast
8:52 PM 32.0 °F - 30.2 °F 93% 30.03 in 7.0 mi Calm Calm - N/A   Overcast
9:12 PM 32.0 °F - 29.8 °F 92% 30.02 in 7.0 mi Calm Calm - N/A   Overcast
9:32 PM 31.5 °F - 29.8 °F 94% 30.02 in 7.0 mi Calm Calm - N/A   Overcast
9:52 PM 32.0 °F - 29.8 °F 92% 30.02 in 7.0 mi Calm Calm - N/A   Overcast
10:12 PM 31.6 °F - 29.7 °F 92% 30.02 in 7.0 mi Calm Calm - N/A   Overcast
10:32 PM 32.0 °F - 29.7 °F 91% 30.01 in 7.0 mi Calm Calm - N/A   Overcast
10:52 PM 32.0 °F - 30.2 °F 93% 30.01 in 7.0 mi Calm Calm - N/A   Overcast
11:12 PM 32.0 °F - 29.8 °F 92% 30.01 in 7.0 mi Calm Calm - N/A   Overcast
11:32 PM 32.0 °F - 29.8 °F 92% 30.00 in 7.0 mi Calm Calm - N/A   Overcast
11:53 PM 31.8 °F - 29.7 °F 92% 29.99 in 10.0 mi Calm Calm - N/A   Overcast